| time (UTC) | temp F | wind direction | speed MPH | gust MPH | rain 1hr in | rain 24hr in | rain mn in | humidity % | barometer mb |
| 20260507060111 | 50 | 200 | 1.0 | 4.0 | 0.01 | 0.67 | 0.23 | 96 | 1014.7 |
| 20260507055110 | 50 | 264 | 0.0 | 3.0 | 0.01 | 0.67 | 0.23 | 96 | 1014.7 |
| 20260507054110 | 50 | 288 | 0.0 | 1.0 | 0.02 | 0.67 | 0.23 | 96 | 1014.6 |
| 20260507050110 | 49 | 199 | 0.0 | 2.0 | 0.01 | 0.66 | 0.22 | 96 | 1014.1 |
| 20260507045110 | 49 | 268 | 0.0 | 5.0 | 0.01 | 0.66 | 0.22 | 96 | 1013.9 |
| 20260507042110 | 49 | 200 | 0.0 | 2.0 | 0.01 | 0.65 | 0.21 | 96 | 1013.6 |
| 20260507041110 | 49 | 264 | 1.0 | 6.0 | 0.02 | 0.65 | 0.21 | 96 | 1013.6 |
| 20260507040110 | 49 | 210 | 2.0 | 4.0 | 0.02 | 0.65 | 0.21 | 96 | 1013.6 |
| 20260507034109 | 49 | 170 | 1.0 | 5.0 | 0.05 | 0.65 | 0.21 | 96 | 1013.4 |
| 20260507033109 | 49 | 179 | 1.0 | 4.0 | 0.05 | 0.65 | 0.20 | 96 | 1013.4 |
| 20260507032109 | 49 | 134 | 1.0 | 4.0 | 0.06 | 0.65 | 0.20 | 96 | 1013.3 |
| 20260507031109 | 49 | 176 | 1.0 | 3.0 | 0.06 | 0.64 | 0.20 | 96 | 1013.2 |
| 20260507030109 | 49 | 251 | 1.0 | 6.0 | 0.06 | 0.63 | 0.19 | 96 | 1013.1 |
| 20260507025109 | 49 | 201 | 1.0 | 8.0 | 0.07 | 0.62 | 0.18 | 96 | 1013.0 |
| 20260507024109 | 49 | 237 | 2.0 | 6.0 | 0.06 | 0.61 | 0.17 | 96 | 1013.1 |
| 20260507022109 | 49 | 127 | 1.0 | 6.0 | 0.06 | 0.58 | 0.14 | 96 | 1012.9 |
| 20260507021113 | 49 | 160 | 2.0 | 6.0 | 0.06 | 0.57 | 0.13 | 96 | 1012.8 |
| 20260507020113 | 49 | 162 | 1.0 | 8.0 | 0.05 | 0.57 | 0.13 | 96 | 1012.7 |
| 20260507015113 | 49 | 247 | 1.0 | 4.0 | 0.04 | 0.55 | 0.11 | 95 | 1012.6 |
| 20260507014113 | 49 | 107 | 1.0 | 4.0 | 0.03 | 0.54 | 0.10 | 95 | 1012.7 |
| 20260507013113 | 49 | 237 | 2.0 | 8.0 | 0.03 | 0.54 | 0.09 | 95 | 1012.5 |
| 20260507012113 | 49 | 113 | 2.0 | 6.0 | 0.02 | 0.53 | 0.09 | 95 | 1012.5 |
| 20260507010112 | 49 | 82 | 2.0 | 8.0 | 0.02 | 0.52 | 0.08 | 95 | 1012.4 |
| 20260507005112 | 49 | 225 | 1.0 | 4.0 | 0.02 | 0.51 | 0.07 | 95 | 1012.4 |
| 20260507004112 | 49 | 232 | 2.0 | 5.0 | 0.02 | 0.51 | 0.07 | 94 | 1012.4 |
| 20260507003112 | 49 | 135 | 2.0 | 6.0 | 0.02 | 0.50 | 0.06 | 94 | 1012.4 |
| 20260507002112 | 49 | 239 | 2.0 | 8.0 | 0.03 | 0.50 | 0.06 | 94 | 1012.4 |
| 20260507000112 | 49 | 236 | 1.0 | 5.0 | 0.02 | 0.50 | 0.06 | 94 | 1012.3 |
| 20260506234112 | 49 | 204 | 2.0 | 8.0 | 0.03 | 0.49 | 0.05 | 94 | 1012.4 |
| 20260506233111 | 49 | 235 | 1.0 | 6.0 | 0.02 | 0.48 | 0.04 | 94 | 1012.5 |
| 20260506232111 | 49 | 158 | 1.0 | 5.0 | 0.02 | 0.47 | 0.03 | 94 | 1012.6 |
| 20260506231111 | 49 | 110 | 1.0 | 4.0 | 0.03 | 0.47 | 0.03 | 94 | 1012.5 |
| 20260506230111 | 49 | 244 | 1.0 | 5.0 | 0.03 | 0.47 | 0.03 | 94 | 1012.5 |
| 20260506224111 | 49 | 121 | 1.0 | 9.0 | 0.02 | 0.46 | 0.02 | 94 | 1012.4 |
| 20260506223111 | 49 | 224 | 2.0 | 8.0 | 0.02 | 0.46 | 0.02 | 94 | 1012.4 |
| 20260506222111 | 49 | 102 | 2.0 | 6.0 | 0.02 | 0.45 | 0.01 | 94 | 1012.3 |
| 20260506221111 | 49 | 200 | 2.0 | 8.0 | 0.01 | 0.44 | 0.00 | 94 | 1012.2 |
| 20260506220111 | 49 | 238 | 1.0 | 9.0 | 0.01 | 0.44 | 0.00 | 93 | 1012.2 |
| 20260506215111 | 49 | 226 | 1.0 | 6.0 | 0.02 | 0.44 | 0.44 | 94 | 1012.1 |
| 20260506214111 | 49 | 245 | 2.0 | 10.0 | 0.02 | 0.44 | 0.44 | 94 | 1012.0 |
| 20260506213111 | 49 | 215 | 1.0 | 4.0 | 0.02 | 0.43 | 0.43 | 94 | 1011.9 |
| 20260506212111 | 49 | 233 | 2.0 | 5.0 | 0.04 | 0.43 | 0.43 | 94 | 1011.9 |
| 20260506211110 | 49 | 110 | 3.0 | 9.0 | 0.05 | 0.43 | 0.43 | 95 | 1011.8 |
| 20260506210110 | 50 | 231 | 1.0 | 5.0 | 0.06 | 0.43 | 0.43 | 95 | 1011.8 |
| 20260506202110 | 50 | 212 | 1.0 | 4.0 | 0.07 | 0.39 | 0.39 | 95 | 1011.6 |
| 20260506201110 | 50 | 153 | 1.0 | 3.0 | 0.07 | 0.39 | 0.39 | 95 | 1011.5 |
| 20260506195110 | 50 | 236 | 2.0 | 9.0 | 0.07 | 0.36 | 0.36 | 95 | 1011.4 |
| 20260506194109 | 50 | 217 | 2.0 | 6.0 | 0.06 | 0.35 | 0.35 | 95 | 1011.3 |
| 20260506193109 | 50 | 172 | 1.0 | 11.0 | 0.06 | 0.33 | 0.33 | 95 | 1011.1 |
| 20260506192109 | 50 | 145 | 0.0 | 3.0 | 0.07 | 0.32 | 0.32 | 95 | 1011.0 |
| 20260506191109 | 50 | 221 | 1.0 | 3.0 | 0.08 | 0.31 | 0.31 | 95 | 1010.9 |
| 20260506185109 | 50 | 230 | 2.0 | 6.0 | 0.08 | 0.29 | 0.29 | 94 | 1010.8 |
| 20260506184109 | 51 | 205 | 1.0 | 5.0 | 0.09 | 0.28 | 0.28 | 94 | 1010.7 |
| 20260506183109 | 51 | 130 | 2.0 | 6.0 | 0.09 | 0.27 | 0.27 | 94 | 1010.6 |
| 20260506182109 | 51 | 231 | 2.0 | 6.0 | 0.08 | 0.25 | 0.25 | 94 | 1010.5 |
| 20260506181108 | 51 | 200 | 2.0 | 10.0 | 0.07 | 0.24 | 0.24 | 94 | 1010.4 |
| 20260506180113 | 51 | 210 | 1.0 | 9.0 | 0.07 | 0.22 | 0.22 | 94 | 1010.3 |
| 20260506175114 | 51 | 248 | 1.0 | 5.0 | 0.08 | 0.22 | 0.21 | 94 | 1010.2 |
| 20260506173113 | 51 | 61 | 1.0 | 8.0 | 0.07 | 0.19 | 0.18 | 94 | 1009.9 |
| 20260506172113 | 51 | 211 | 2.0 | 9.0 | 0.08 | 0.18 | 0.17 | 94 | 1009.7 |
| 20260506165113 | 52 | 224 | 1.0 | 4.0 | 0.07 | 0.14 | 0.13 | 93 | 1009.5 |
| 20260506164113 | 52 | 185 | 1.0 | 4.0 | 0.06 | 0.13 | 0.12 | 92 | 1009.5 |
| 20260506163114 | 52 | 192 | 2.0 | 6.0 | 0.06 | 0.12 | 0.11 | 92 | 1009.5 |
| 20260506162113 | 52 | 221 | 2.0 | 10.0 | 0.06 | 0.10 | 0.09 | 91 | 1009.4 |
| 20260506161112 | 52 | 147 | 2.0 | 6.0 | 0.06 | 0.09 | 0.09 | 91 | 1009.4 |
| 20260506160112 | 52 | 120 | 2.0 | 5.0 | 0.06 | 0.09 | 0.08 | 90 | 1009.4 |
| 20260506155112 | 52 | 110 | 1.0 | 6.0 | 0.05 | 0.07 | 0.06 | 90 | 1009.3 |
| 20260506154112 | 52 | 222 | 2.0 | 6.0 | 0.04 | 0.06 | 0.06 | 89 | 1009.3 |
| 20260506153112 | 52 | 193 | 2.0 | 6.0 | 0.03 | 0.06 | 0.05 | 88 | 1009.2 |
| 20260506151112 | 53 | 167 | 2.0 | 8.0 | 0.01 | 0.03 | 0.02 | 84 | 1009.1 |
| 20260506150112 | 53 | 175 | 3.0 | 9.0 | 0.00 | 0.02 | 0.02 | 83 | 1009.0 |
| 20260506145112 | 53 | 121 | 2.0 | 8.0 | 0.00 | 0.02 | 0.02 | 84 | 1009.0 |
| 20260506143112 | 54 | 169 | 2.0 | 11.0 | 0.00 | 0.02 | 0.02 | 85 | 1009.0 |
| 20260506142111 | 54 | 248 | 3.0 | 10.0 | 0.01 | 0.02 | 0.02 | 85 | 1008.9 |
| 20260506141111 | 54 | 155 | 4.0 | 14.0 | 0.01 | 0.02 | 0.02 | 85 | 1008.9 |
| 20260506140111 | 54 | 277 | 3.0 | 9.0 | 0.01 | 0.02 | 0.02 | 86 | 1008.8 |
| 20260506135111 | 55 | 124 | 3.0 | 12.0 | 0.01 | 0.15 | 0.02 | 85 | 1008.8 |
| 20260506134111 | 55 | 232 | 3.0 | 9.0 | 0.01 | 0.15 | 0.02 | 86 | 1008.8 |
| 20260506133111 | 55 | 113 | 3.0 | 10.0 | 0.01 | 0.15 | 0.02 | 86 | 1008.7 |
| 20260506131111 | 55 | 223 | 4.0 | 13.0 | 0.01 | 0.14 | 0.01 | 84 | 1008.7 |
| 20260506130111 | 55 | 48 | 4.0 | 16.0 | 0.01 | 0.14 | 0.01 | 84 | 1008.5 |
| 20260506125111 | 56 | 238 | 5.0 | 16.0 | 0.01 | 0.14 | 0.01 | 85 | 1008.3 |
| 20260506123110 | 57 | 233 | 5.0 | 17.0 | 0.01 | 0.14 | 0.01 | 85 | 1008.0 |
| 20260506122110 | 57 | 230 | 6.0 | 13.0 | 0.00 | 0.13 | 0.00 | 86 | 1007.9 |
| 20260506121110 | 58 | 247 | 4.0 | 11.0 | 0.00 | 0.13 | 0.00 | 86 | 1007.8 |
| 20260506115110 | 58 | 259 | 2.0 | 9.0 | 0.00 | 0.13 | 0.00 | 86 | 1007.7 |
| 20260506114110 | 58 | 122 | 2.0 | 10.0 | 0.00 | 0.13 | 0.00 | 84 | 1007.7 |
| 20260506112110 | 58 | 264 | 3.0 | 10.0 | 0.00 | 0.13 | 0.00 | 83 | 1007.6 |
| 20260506111110 | 58 | 271 | 3.0 | 9.0 | 0.00 | 0.13 | 0.00 | 83 | 1007.5 |
| 20260506110110 | 59 | 293 | 3.0 | 12.0 | 0.00 | 0.13 | 0.00 | 81 | 1007.5 |
| 20260506105109 | 59 | 173 | 4.0 | 12.0 | 0.00 | 0.13 | 0.00 | 79 | 1007.6 |
| 20260506104109 | 59 | 184 | 2.0 | 8.0 | 0.00 | 0.13 | 0.00 | 78 | 1007.4 |
| 20260506103109 | 59 | 207 | 2.0 | 9.0 | 0.00 | 0.13 | 0.00 | 77 | 1007.3 |
| 20260506102109 | 59 | 326 | 2.0 | 10.0 | 0.00 | 0.13 | 0.00 | 77 | 1007.3 |
| 20260506101109 | 59 | 245 | 2.0 | 6.0 | 0.00 | 0.13 | 0.00 | 77 | 1007.3 |
| 20260506100109 | 59 | 252 | 1.0 | 6.0 | 0.00 | 0.13 | 0.00 | 77 | 1007.2 |
| 20260506095109 | 59 | 198 | 3.0 | 8.0 | 0.00 | 0.13 | 0.00 | 77 | 1007.2 |
| 20260506094109 | 59 | 203 | 2.0 | 8.0 | 0.00 | 0.13 | 0.00 | 76 | 1007.1 |
| 20260506093109 | 59 | 186 | 1.0 | 5.0 | 0.00 | 0.13 | 0.00 | 76 | 1007.1 |
| 20260506092109 | 60 | 235 | 1.0 | 4.0 | 0.00 | 0.13 | 0.00 | 75 | 1007.1 |
| 20260506090108 | 60 | 212 | 3.0 | 10.0 | 0.00 | 0.13 | 0.00 | 72 | 1007.0 |
| 20260506085108 | 62 | 219 | 2.0 | 5.0 | 0.00 | 0.13 | 0.00 | 71 | 1007.0 |
| 20260506084108 | 61 | 210 | 2.0 | 4.0 | 0.00 | 0.13 | 0.00 | 73 | 1006.9 |
| 20260506083108 | 61 | 200 | 2.0 | 6.0 | 0.00 | 0.13 | 0.00 | 73 | 1006.7 |
| 20260506082108 | 61 | 261 | 3.0 | 10.0 | 0.00 | 0.13 | 0.00 | 74 | 1006.8 |
| 20260506081108 | 60 | 191 | 2.0 | 8.0 | 0.00 | 0.13 | 0.00 | 76 | 1006.8 |
| 20260506080108 | 59 | 184 | 2.0 | 8.0 | 0.00 | 0.13 | 0.00 | 75 | 1006.9 |
| 20260506072112 | 58 | 243 | 3.0 | 9.0 | 0.00 | 0.13 | 0.00 | 76 | 1006.9 |
| 20260506071112 | 59 | 343 | 1.0 | 11.0 | 0.00 | 0.13 | 0.00 | 76 | 1006.8 |
| 20260506070112 | 59 | 144 | 2.0 | 6.0 | 0.00 | 0.13 | 0.00 | 76 | 1006.8 |
| 20260506062112 | 57 | 145 | 1.0 | 8.0 | 0.00 | 0.13 | 0.00 | 79 | 1007.0 |
| 20260506061112 | 56 | 230 | 1.0 | 4.0 | 0.00 | 0.13 | 0.00 | 82 | 1007.0 |